Starlink 31067

operational
NORAD ID: 58608 Int'l Des: 2023-200 Owner: SPXS Country: US Constellation: starlink
LEOCIRCULAR

Über Starlink 31067

Beschreibung wird geladen...

Live-Position

3D-Globus wird geladen...

Nächste Überflüge

Höhenverlauf

Altitude vs Time

uPlot chart will show altitude changes over time

Zweizeiliger Elementsatz

1 58608U 23200V 26095.19241521 .00004630 00000-0 18211-3 0 9990
2 58608 43.0042 19.2150 0001686 5.2283 354.8585 15.26751369127666
Epoch: 5. Apr. 2026 • Age: 14 hours

Aktueller Status

Höhe 490.2 km
Geschwindigkeit 7.62 km/s
Subsatellitenpunkt -23.17°S, 124.24°W
Startdatum 19. Dez. 2023
Alter 2.2 years
Typ internet

Technische Details

Klassifizierung Payload
Masse 730.00 kg
Trockenmasse 700.00 kg
Gesamtmasse 730.00 kg
Länge 0.30 m
Durchmesser 4.10 m
Spannweite 29.00 m
Form Box + pan
Hersteller SPXS
Bus-Typ Starlink V2M
Phasenstatus In Orbit
Besitzer/Staat SPXS/US

Große Konstellationen

Loading constellations...